Flag for Germany Weather past 2 weeks in Bayreuth, Bavaria, Germany

Now
37 °F

Overcast.


Feels Like: 37 °F
Forecast: 44 / 50 °F
Wind: 2 mph from Northwest

Location: Grafenwoehr

Current Time: Mar 28, 2015 at 6:25:57 AM

Latest Report: Mar 28, 2015 at 5:58 AM


Visibility: N/A

Pressure: 30.22 "Hg

Humidity: 81%

Dew point: 32 °F

Location of BayreuthLocation

Historic Weather in Bayreuth — Graph

°F

Bayreuth temperature yesterday

Maximum temperature yesterday: 46 °F (at 1:58 PM)
Minimum temperature yesterday: 38 °F (at 3:58 AM)
Average temperature yesterday: 41 °F

Past Weeks' High & Low Weather Summary

 TemperatureHumidityPressure
High63 °F (Mar 25, 2:58 PM)100% (Mar 15, 2:58 AM)30.33 "Hg (Mar 15, 2:58 AM)
Low23 °F (Mar 21, 5:58 AM)27% (Mar 20, 2:58 PM)29.59 "Hg (Mar 25, 9:58 PM)
Average41 °F75%30.10 "Hg
* Reported Mar 13 4:58 AM — Mar 28 4:58 AM, Bayreuth, Weather by CustomWeather, © 2015

Note: Actual official high and low records may vary slightly from our data, if they occured in-between our weather recording intervals... More about our weather records

Advertising

Bayreuth weather history for previous 24 hours

 ConditionsComfort  
Time TempWeatherWind HumidityBarometerVisibility
4:58 AM
Sat, Mar 28
37 °FOvercast.2 mph81%30.22 "HgN/A
3:58 AM37 °FOvercast.2 mph81%30.21 "HgN/A
2:58 AM39 °FOvercast.2 mph75%30.21 "HgN/A
1:58 AM39 °FOvercast.3 mph75%30.20 "HgN/A
12:58 AM41 °FOvercast.3 mph70%30.20 "HgN/A
11:58 PM
Fri, Mar 27
41 °FOvercast.3 mph74%30.20 "HgN/A
10:58 PM41 °FOvercast.5 mph76%30.19 "HgN/A
9:58 PM41 °FOvercast.5 mph76%30.19 "HgN/A
8:58 PM41 °FOvercast.5 mph76%30.18 "HgN/A
7:58 PM41 °FOvercast.3 mph74%30.16 "HgN/A
6:58 PM41 °FMostly cloudy.3 mph81%30.14 "HgN/A
5:58 PM41 °FOvercast.8 mph77%30.11 "HgN/A
4:58 PM43 °FMostly cloudy.7 mph73%30.09 "HgN/A
3:58 PM45 °FScattered clouds.7 mph71%30.06 "HgN/A
3:01 PM43 °FDrizzle. Cloudy.21 mph76%30.01 "HgN/A
1:58 PM46 °FLight rain. Partly sunny.9 mph61%30.03 "HgN/A
12:58 PM45 °FMore clouds than sun.6 mph65%30.02 "HgN/A
11:58 AM42 °FBroken clouds.7 mph80%30.01 "HgN/A
11:04 AM45 °FBroken clouds.10 mph71%29.96 "HgN/A
10:58 AM45 °FCloudy.12 mph77%30.00 "HgN/A
10:03 AM41 °FCloudy.7 mph87%29.95 "HgN/A
9:58 AM42 °FLight rain. Broken clouds.8 mph84%29.99 "HgN/A
8:58 AM41 °FMostly cloudy.10 mph93%29.98 "HgN/A
8:04 AM41 °FMostly cloudy.3 mph93%29.92 "HgN/A
7:58 AM40 °FMore clouds than sun.5 mph93%29.96 "HgN/A
6:58 AM39 °FOvercast.6 mph93%29.93 "HgN/A
Weather by CustomWeather, © 2015

See weather overviewHow to use our weather pages